GLD1974 SMJP-TQPF

Flight info

Callsign GLD1974
Flight time N/A
Altitude 38000
Route ILRAV UL462 ANU UB520 ELOPO
Aircraft A319/M-SDE3FGHIRWY/LB1

Departure

Time 2026-05-05 09:56
Airport Johan Adolf Pengel International Airport (SMJP)

Arrival

Time N/A
Airport Clayton J. Lloyd International Airport (TQPF)
Time Latitude Longitude Altitude Speed Heading
2026-05-05 09:40 5.45501 -55.19921 59 ft 0 kts 184°
2026-05-05 09:53 5.45500 -55.19921 59 ft 0 kts 184°
2026-05-05 09:53 5.45490 -55.19922 55 ft 3 kts 184°
2026-05-05 09:53 5.45468 -55.19939 59 ft 6 kts 230°
2026-05-05 09:53 5.45456 -55.19997 56 ft 10 kts 270°
2026-05-05 09:54 5.45414 -55.20048 59 ft 12 kts 200°
2026-05-05 09:54 5.45330 -55.20076 55 ft 14 kts 202°
2026-05-05 09:54 5.45285 -55.20050 59 ft 5 kts 91°
2026-05-05 09:54 5.45285 -55.20048 57 ft 0 kts 90°
2026-05-05 09:55 5.45285 -55.20047 57 ft 0 kts 90°
2026-05-05 09:56 5.45285 -55.19998 59 ft 41 kts 90°
2026-05-05 09:56 5.45288 -55.19323 60 ft 148 kts 90°
2026-05-05 09:56 5.45288 -55.18139 637 ft 179 kts 90°
2026-05-05 09:56 5.45280 -55.16891 1731 ft 177 kts 89°
2026-05-05 09:57 5.45260 -55.15597 2465 ft 197 kts 90°
2026-05-05 09:57 5.45235 -55.14134 3098 ft 222 kts 89°
2026-05-05 09:57 5.45603 -55.12550 3773 ft 248 kts 61°
2026-05-05 09:57 5.46892 -55.11346 4735 ft 266 kts 27°
2026-05-05 09:58 5.48746 -55.11080 5783 ft 280 kts 353°
2026-05-05 09:58 5.50546 -55.11882 6852 ft 290 kts 326°
2026-05-05 09:58 5.52097 -55.13209 7925 ft 296 kts 317°
2026-05-05 09:58 5.53526 -55.14725 8978 ft 302 kts 314°
2026-05-05 09:59 5.54935 -55.16312 9992 ft 308 kts 314°
2026-05-05 09:59 5.56420 -55.17963 10537 ft 331 kts 315°
2026-05-05 09:59 5.58036 -55.19693 11175 ft 345 kts 316°
2026-05-05 09:59 5.59723 -55.21443 12037 ft 351 kts 316°
2026-05-05 10:00 5.60866 -55.22604 12626 ft 355 kts 317°
2026-05-05 10:00 5.62625 -55.24366 13514 ft 360 kts 317°
2026-05-05 10:00 5.64420 -55.26145 14314 ft 365 kts 317°
2026-05-05 10:00 5.66234 -55.27939 15098 ft 368 kts 317°
2026-05-05 10:01 5.68070 -55.29754 15877 ft 372 kts 317°
2026-05-05 10:01 5.69918 -55.31588 16661 ft 375 kts 317°
2026-05-05 10:01 5.71781 -55.33443 17405 ft 379 kts 317°
2026-05-05 10:01 5.73660 -55.35320 18134 ft 383 kts 317°
2026-05-05 10:02 5.75563 -55.37220 18770 ft 387 kts 316°
2026-05-05 10:02 5.77478 -55.39134 19390 ft 390 kts 316°
2026-05-05 10:02 5.79412 -55.41063 20015 ft 394 kts 316°
2026-05-05 10:02 5.81363 -55.43009 20638 ft 397 kts 315°
2026-05-05 10:03 5.83331 -55.44974 21256 ft 401 kts 315°
2026-05-05 10:03 5.85316 -55.46954 21881 ft 404 kts 315°
2026-05-05 10:03 5.87317 -55.48952 22509 ft 407 kts 314°
2026-05-05 10:03 5.89336 -55.50967 23110 ft 411 kts 314°
2026-05-05 10:04 5.91345 -55.52973 23691 ft 414 kts 314°
2026-05-05 10:04 5.93394 -55.55019 24194 ft 417 kts 314°
2026-05-05 10:04 5.95458 -55.57082 24709 ft 419 kts 314°
2026-05-05 10:04 5.97532 -55.59156 25215 ft 421 kts 314°
2026-05-05 10:05 5.99612 -55.61236 25723 ft 423 kts 314°
2026-05-05 10:05 6.01703 -55.63325 26231 ft 425 kts 314°
2026-05-05 10:05 6.03802 -55.65422 26743 ft 426 kts 314°
2026-05-05 10:05 6.05913 -55.67530 27229 ft 428 kts 314°
2026-05-05 10:06 6.08025 -55.69641 27723 ft 430 kts 314°
2026-05-05 10:06 6.10150 -55.71765 28193 ft 432 kts 314°
2026-05-05 10:06 6.12283 -55.73897 28651 ft 434 kts 314°
2026-05-05 10:06 6.14425 -55.76038 29121 ft 435 kts 314°
2026-05-05 10:07 6.16579 -55.78192 29579 ft 438 kts 314°
2026-05-05 10:07 6.18740 -55.80353 30034 ft 440 kts 314°
2026-05-05 10:07 6.20910 -55.82527 30429 ft 441 kts 314°
2026-05-05 10:07 6.23089 -55.84713 30776 ft 444 kts 314°
2026-05-05 10:08 6.25287 -55.86914 31116 ft 448 kts 314°
2026-05-05 10:08 6.27482 -55.89105 31439 ft 451 kts 313°
2026-05-05 10:08 6.29714 -55.91333 31770 ft 454 kts 314°
2026-05-05 10:08 6.31987 -55.93605 32174 ft 455 kts 313°
2026-05-05 10:09 6.34201 -55.95821 32632 ft 455 kts 313°
2026-05-05 10:09 6.36442 -55.98065 33092 ft 455 kts 313°
2026-05-05 10:09 6.38687 -56.00310 33559 ft 456 kts 313°
2026-05-05 10:09 6.40938 -56.02562 34015 ft 456 kts 313°
2026-05-05 10:10 6.43186 -56.04813 34412 ft 456 kts 313°
2026-05-05 10:10 6.45425 -56.07061 34868 ft 454 kts 313°
2026-05-05 10:10 6.47657 -56.09297 35339 ft 452 kts 313°
2026-05-05 10:10 6.49878 -56.11525 35823 ft 450 kts 313°
2026-05-05 10:11 6.52089 -56.13738 36300 ft 447 kts 313°
2026-05-05 10:11 6.54289 -56.15937 36800 ft 444 kts 313°
2026-05-05 10:11 6.56473 -56.18122 37304 ft 441 kts 313°
2026-05-05 10:11 6.58642 -56.20293 37787 ft 439 kts 314°
2026-05-05 10:12 6.60806 -56.22463 37981 ft 437 kts 313°
2026-05-05 10:12 6.62950 -56.24613 38016 ft 434 kts 314°
2026-05-05 10:12 6.67228 -56.28905 38014 ft 434 kts 313°
2026-05-05 10:13 6.71503 -56.33194 38014 ft 433 kts 314°
2026-05-05 10:13 6.75757 -56.37468 38014 ft 431 kts 313°
2026-05-05 10:14 6.80016 -56.41745 38013 ft 433 kts 313°
2026-05-05 10:14 6.84276 -56.46023 38016 ft 433 kts 314°
2026-05-05 10:15 6.88520 -56.50274 38019 ft 433 kts 313°
2026-05-05 10:15 6.92793 -56.54561 38022 ft 433 kts 313°
2026-05-05 10:16 6.97056 -56.58847 38034 ft 433 kts 314°
2026-05-05 10:16 7.01307 -56.63125 38034 ft 431 kts 313°
2026-05-05 10:17 7.05551 -56.67392 38034 ft 430 kts 313°
2026-05-05 10:17 7.09780 -56.71646 38030 ft 429 kts 313°
2026-05-05 10:18 7.14008 -56.75893 38026 ft 428 kts 313°
2026-05-05 10:18 7.18226 -56.80128 38028 ft 428 kts 313°
2026-05-05 10:19 7.22438 -56.84372 38024 ft 428 kts 313°
2026-05-05 10:19 7.26644 -56.88614 38026 ft 428 kts 313°
2026-05-05 10:20 7.30857 -56.92858 38025 ft 428 kts 313°
2026-05-05 10:20 7.35067 -56.97091 38031 ft 427 kts 313°
2026-05-05 10:21 7.39246 -57.01290 38030 ft 426 kts 313°
2026-05-05 10:21 7.43438 -57.05513 38030 ft 426 kts 313°
2026-05-05 10:22 7.47623 -57.09741 38030 ft 426 kts 313°
2026-05-05 10:22 7.51815 -57.13976 38026 ft 426 kts 313°
2026-05-05 10:23 7.56013 -57.18201 38029 ft 426 kts 313°
2026-05-05 10:23 7.60213 -57.22428 38027 ft 426 kts 313°
2026-05-05 10:24 7.64403 -57.26658 38026 ft 426 kts 313°
2026-05-05 10:24 7.68589 -57.30889 38024 ft 426 kts 312°
2026-05-05 10:25 7.72773 -57.35123 38020 ft 426 kts 312°
2026-05-05 10:25 7.76952 -57.39356 38016 ft 426 kts 312°
2026-05-05 10:26 7.81142 -57.43586 38014 ft 426 kts 312°
2026-05-05 10:26 7.85330 -57.47811 38014 ft 426 kts 312°
2026-05-05 10:27 7.89520 -57.52038 38015 ft 426 kts 312°
2026-05-05 10:27 7.93704 -57.56275 38016 ft 426 kts 312°
2026-05-05 10:28 7.97878 -57.60503 38021 ft 426 kts 312°
2026-05-05 10:28 8.02069 -57.64737 38023 ft 426 kts 312°
2026-05-05 10:29 8.06261 -57.68977 38034 ft 425 kts 313°
2026-05-05 10:29 8.10449 -57.73194 38032 ft 426 kts 315°
2026-05-05 10:30 8.12788 -57.74996 38038 ft 429 kts 326°
2026-05-05 10:30 8.15437 -57.76380 38040 ft 431 kts 334°
2026-05-05 10:30 8.20967 -57.78762 38039 ft 431 kts 334°
2026-05-05 10:31 8.26484 -57.81143 38034 ft 431 kts 334°
2026-05-05 10:31 8.31999 -57.83527 38036 ft 431 kts 334°
2026-05-05 10:32 8.37508 -57.85926 38040 ft 431 kts 334°
2026-05-05 10:32 8.43015 -57.88312 38042 ft 430 kts 334°
2026-05-05 10:33 8.48518 -57.90685 38042 ft 430 kts 334°
2026-05-05 10:33 8.54019 -57.93061 38044 ft 430 kts 334°
2026-05-05 10:34 8.59507 -57.95445 38042 ft 429 kts 334°
2026-05-05 10:34 8.65015 -57.97836 38042 ft 429 kts 334°
2026-05-05 10:35 8.70505 -58.00209 38054 ft 429 kts 334°
2026-05-05 10:35 8.75952 -58.02563 38058 ft 427 kts 334°
2026-05-05 10:36 8.81407 -58.04927 38059 ft 426 kts 334°
2026-05-05 10:36 8.86849 -58.07287 38055 ft 425 kts 334°
2026-05-05 10:37 8.92284 -58.09649 38048 ft 425 kts 334°
2026-05-05 10:37 8.97708 -58.12018 38048 ft 424 kts 334°
2026-05-05 10:38 9.03131 -58.14391 38052 ft 424 kts 334°
2026-05-05 10:38 9.08548 -58.16765 38050 ft 424 kts 334°
2026-05-05 10:39 9.13963 -58.19133 38047 ft 424 kts 334°
2026-05-05 10:39 9.19379 -58.21497 38046 ft 424 kts 334°
2026-05-05 10:40 9.24796 -58.23874 38047 ft 424 kts 334°
2026-05-05 10:40 9.30212 -58.26248 38048 ft 424 kts 334°
2026-05-05 10:41 9.35630 -58.28614 38048 ft 424 kts 334°
2026-05-05 10:41 9.40133 -58.30586 38047 ft 424 kts 334°
2026-05-05 10:42 9.48257 -58.34150 38047 ft 424 kts 334°
2026-05-05 10:43 9.53666 -58.36527 38046 ft 424 kts 334°
2026-05-05 10:43 9.59088 -58.38903 38047 ft 424 kts 334°
2026-05-05 10:44 9.64471 -58.41263 38046 ft 424 kts 334°
2026-05-05 10:44 9.69880 -58.43639 38039 ft 423 kts 335°
2026-05-05 10:45 9.75285 -58.46013 38042 ft 423 kts 335°
2026-05-05 10:45 9.80694 -58.48386 38051 ft 423 kts 335°
2026-05-05 10:46 9.86098 -58.50760 38056 ft 423 kts 335°
2026-05-05 10:46 9.91501 -58.53135 38056 ft 423 kts 335°
2026-05-05 10:47 9.96860 -58.55496 38053 ft 422 kts 335°
2026-05-05 10:47 10.02248 -58.57873 38057 ft 422 kts 335°
2026-05-05 10:48 10.07638 -58.60238 38050 ft 422 kts 335°
2026-05-05 10:48 10.13021 -58.62604 38053 ft 421 kts 335°
2026-05-05 10:49 10.18397 -58.64980 38048 ft 421 kts 335°
2026-05-05 10:49 10.23779 -58.67351 38050 ft 421 kts 335°
2026-05-05 10:50 10.29159 -58.69723 38053 ft 422 kts 335°
2026-05-05 10:50 10.34540 -58.72100 38054 ft 422 kts 336°
2026-05-05 10:51 10.39893 -58.74456 38057 ft 421 kts 336°
2026-05-05 10:51 10.45273 -58.76829 38053 ft 421 kts 336°
2026-05-05 10:52 10.50648 -58.79207 38055 ft 421 kts 336°
2026-05-05 10:52 10.56029 -58.81578 38052 ft 422 kts 336°
2026-05-05 10:53 10.61407 -58.83953 38052 ft 421 kts 336°
2026-05-05 10:53 10.66791 -58.86344 38054 ft 422 kts 336°
2026-05-05 10:54 10.72171 -58.88722 38054 ft 422 kts 336°
2026-05-05 10:54 10.77554 -58.91099 38061 ft 422 kts 336°
2026-05-05 10:55 10.82942 -58.93480 38054 ft 422 kts 336°
2026-05-05 10:55 10.88336 -58.95868 38061 ft 422 kts 336°
2026-05-05 10:56 10.93745 -58.98265 38059 ft 428 kts 336°
2026-05-05 10:56 10.99292 -59.00722 38055 ft 445 kts 336°
2026-05-05 10:57 11.05016 -59.03252 38057 ft 449 kts 337°
2026-05-05 10:57 11.10768 -59.05801 38059 ft 451 kts 337°
2026-05-05 10:58 11.16526 -59.08359 38057 ft 451 kts 337°
2026-05-05 10:58 11.22283 -59.10913 38061 ft 452 kts 337°
2026-05-05 10:59 11.28042 -59.13468 38063 ft 451 kts 337°
2026-05-05 10:59 11.33802 -59.16030 38072 ft 452 kts 337°
2026-05-05 11:00 11.39561 -59.18594 38073 ft 452 kts 336°
2026-05-05 11:00 11.45324 -59.21158 38079 ft 451 kts 337°
2026-05-05 11:01 11.51083 -59.23715 38081 ft 451 kts 337°
2026-05-05 11:01 11.56841 -59.26274 38079 ft 451 kts 337°
2026-05-05 11:02 11.62600 -59.28838 38082 ft 451 kts 337°
2026-05-05 11:02 11.68351 -59.31398 38075 ft 451 kts 336°
2026-05-05 11:03 11.74069 -59.33944 38079 ft 451 kts 336°
2026-05-05 11:03 11.79823 -59.36515 38087 ft 451 kts 337°
2026-05-05 11:04 11.85571 -59.39080 38087 ft 451 kts 337°
2026-05-05 11:04 11.91319 -59.41643 38090 ft 451 kts 337°
2026-05-05 11:05 11.97070 -59.44204 38085 ft 451 kts 337°
2026-05-05 11:05 12.02817 -59.46775 38082 ft 451 kts 336°
2026-05-05 11:06 12.08564 -59.49350 38079 ft 450 kts 336°
2026-05-05 11:06 12.14319 -59.51918 38081 ft 450 kts 336°
2026-05-05 11:07 12.20062 -59.54479 38080 ft 450 kts 336°
2026-05-05 11:07 12.25793 -59.57041 38079 ft 449 kts 336°
2026-05-05 11:08 12.31521 -59.59604 38073 ft 449 kts 336°
2026-05-05 11:08 12.37211 -59.62155 38069 ft 449 kts 336°
2026-05-05 11:09 12.42932 -59.64723 38068 ft 449 kts 336°
2026-05-05 11:09 12.48662 -59.67296 38063 ft 449 kts 336°
2026-05-05 11:10 12.54387 -59.69865 38067 ft 449 kts 336°
2026-05-05 11:10 12.60108 -59.72425 38068 ft 449 kts 336°
2026-05-05 11:11 12.65829 -59.74989 38065 ft 448 kts 336°
2026-05-05 11:11 12.71546 -59.77557 38066 ft 448 kts 336°
2026-05-05 11:12 12.77260 -59.80130 38066 ft 449 kts 336°
2026-05-05 11:12 12.82978 -59.82701 38068 ft 449 kts 336°
2026-05-05 11:13 12.88661 -59.85258 38076 ft 449 kts 336°
2026-05-05 11:13 12.94381 -59.87830 38078 ft 449 kts 336°
2026-05-05 11:14 13.00108 -59.90403 38080 ft 450 kts 337°
2026-05-05 11:14 13.05836 -59.92985 38088 ft 449 kts 337°
2026-05-05 11:15 13.11552 -59.95569 38101 ft 449 kts 337°
2026-05-05 11:15 13.17273 -59.98153 38099 ft 449 kts 337°
2026-05-05 11:16 13.22988 -60.00733 38100 ft 448 kts 337°
2026-05-05 11:16 13.28704 -60.03309 38103 ft 448 kts 337°
2026-05-05 11:17 13.34415 -60.05881 38104 ft 448 kts 337°
2026-05-05 11:17 13.40117 -60.08453 38104 ft 447 kts 337°
2026-05-05 11:18 13.45778 -60.11014 38106 ft 447 kts 337°
2026-05-05 11:18 13.51467 -60.13588 38107 ft 446 kts 337°
2026-05-05 11:19 13.57148 -60.16166 38105 ft 446 kts 336°
2026-05-05 11:19 13.62825 -60.18742 38095 ft 446 kts 337°
2026-05-05 11:20 13.68499 -60.21308 38098 ft 445 kts 336°
2026-05-05 11:20 13.74173 -60.23883 38099 ft 445 kts 336°
2026-05-05 11:21 13.79840 -60.26455 38105 ft 445 kts 336°
2026-05-05 11:21 13.85508 -60.29020 38104 ft 445 kts 337°
2026-05-05 11:22 13.91171 -60.31586 38100 ft 445 kts 336°
2026-05-05 11:22 13.96825 -60.34163 38098 ft 445 kts 336°
2026-05-05 11:23 14.02452 -60.36725 38092 ft 444 kts 336°
2026-05-05 11:23 14.08110 -60.39302 38096 ft 444 kts 336°
2026-05-05 11:24 14.13767 -60.41876 38094 ft 444 kts 336°
2026-05-05 11:24 14.19430 -60.44448 38093 ft 444 kts 336°
2026-05-05 11:25 14.25084 -60.47016 38091 ft 444 kts 336°
2026-05-05 11:25 14.30737 -60.49600 38088 ft 444 kts 336°
2026-05-05 11:26 14.35439 -60.51752 38086 ft 444 kts 336°
2026-05-05 11:26 14.41099 -60.54333 38081 ft 445 kts 336°
2026-05-05 11:27 14.46759 -60.56907 38083 ft 445 kts 336°
2026-05-05 11:27 14.52419 -60.59493 38084 ft 445 kts 336°
2026-05-05 11:28 14.58084 -60.62089 38086 ft 445 kts 336°
2026-05-05 11:28 14.63747 -60.64680 38092 ft 445 kts 336°
2026-05-05 11:29 14.69426 -60.67273 38090 ft 446 kts 336°
2026-05-05 11:29 14.75101 -60.69863 38094 ft 446 kts 336°
2026-05-05 11:30 14.80782 -60.72464 38099 ft 446 kts 336°
2026-05-05 11:30 14.86416 -60.75053 38102 ft 446 kts 336°
2026-05-05 11:31 14.92089 -60.77659 38104 ft 446 kts 336°
2026-05-05 11:31 14.97766 -60.80266 38101 ft 446 kts 336°
2026-05-05 11:32 15.03452 -60.82875 38113 ft 447 kts 336°
2026-05-05 11:32 15.09138 -60.85490 38114 ft 447 kts 336°
2026-05-05 11:33 15.14826 -60.88106 38109 ft 447 kts 336°
2026-05-05 11:33 15.20519 -60.90720 38114 ft 448 kts 336°
2026-05-05 11:34 15.26212 -60.93335 38119 ft 448 kts 336°
2026-05-05 11:34 15.31900 -60.95959 38119 ft 448 kts 336°
2026-05-05 11:35 15.37596 -60.98585 38115 ft 448 kts 336°
2026-05-05 11:35 15.40444 -60.99898 38116 ft 448 kts 336°